Flag for Colombia Weather past 2 weeks in Manizales, Colombia

Now
68 °F

Passing clouds.


Feels Like: 68 °F
Forecast: 57 / 75 °F
Wind: 8 mph from East

Location: Pereira / Matecana

Current Time: Sep 24, 2014 at 12:02:35 AM

Latest Report: Sep 23, 2014 at 11:00 PM


Visibility: N/A

Pressure: 30.11 "Hg

Humidity: 83%

Dew point: 63 °F

Location of ManizalesLocation

Historic Weather in Manizales — Graph

°F

Manizales temperature yesterday

Maximum temperature yesterday: 82 °F (at 2:00 PM)
Minimum temperature yesterday: 63 °F (at 5:00 AM)
Average temperature yesterday: 72 °F

Past Weeks' High & Low Weather Summary

 TemperatureHumidityPressure
High86 °F (Sep 9, 2:00 PM)100% (Sep 20, 6:00 AM)30.24 "Hg (Sep 20, 6:00 AM)
Low63 °F (Sep 12, 7:00 AM)43% (Sep 9, 4:00 PM)29.94 "Hg (Sep 9, 4:00 PM)
Average71 °F77%30.10 "Hg
* Reported Sep 8 11:00 PM — Sep 23 11:00 PM, Manizales, Weather by CustomWeather, © 2014

Note: Actual official high and low records may vary slightly from our data, if they occured in-between our weather recording intervals... More about our weather records

Advertising

Manizales weather history for previous 24 hours

 ConditionsComfort  
Time TempWeatherWind HumidityBarometerVisibility
11:00 PM
Sep 23
68 °FPassing clouds.8 mph83%30.11 "HgN/A
10:00 PM70 °FPassing clouds.5 mph83%30.10 "HgN/A
9:00 PM70 °FPassing clouds.5 mph83%30.07 "HgN/A
8:00 PM72 °FPassing clouds.6 mph78%30.04 "HgN/A
7:00 PM72 °FPassing clouds.6 mph78%30.04 "HgN/A
6:00 PM75 °FPassing clouds.7 mph69%30.03 "HgN/A
5:00 PM79 °FScattered clouds.6 mph58%30.00 "HgN/A
4:00 PM81 °FScattered clouds.7 mph54%29.97 "HgN/A
3:00 PM82 °FScattered clouds.5 mph51%30.00 "HgN/A
2:00 PM82 °FScattered showers. Scattered clouds.5 mph55%30.03 "HgN/A
1:00 PM79 °FPassing clouds.7 mph61%30.06 "HgN/A
12:00 PM77 °FPassing clouds.5 mph65%30.09 "HgN/A
11:00 AM73 °FPassing clouds.5 mph74%30.12 "HgN/A
10:00 AM72 °FPassing clouds.5 mph73%30.15 "HgN/A
9:00 AM68 °FPassing clouds.2 mph78%30.16 "HgN/A
8:00 AM64 °FPartly sunny.No wind83%30.16 "HgN/A
7:00 AM63 °FScattered clouds.No wind88%30.15 "HgN/A
6:00 AM63 °FPartly sunny.2 mph94%30.13 "Hg6 mi
5:00 AM63 °FPassing clouds.2 mph94%30.12 "Hg2 mi
12:00 AM66 °FPassing clouds.2 mph88%30.13 "HgN/A
Weather by CustomWeather, © 2014

See weather overviewHow to use our weather pages